Flag for U.S.A. Weather past 2 weeks in Dayton, Ohio, U.S.A.

Now
49 °F

Overcast.


Feels Like: 46 °F
Forecast: 46 / 53 °F
Wind: 9 mph from Northwest

Location: Dayton / Wright-Patterson Air Force Base

Current Time: Oct 21, 2014 at 8:16:39 AM

Latest Report: Oct 21, 2014 at 6:58 AM


Visibility: 10 mi

Pressure: 29.96 "Hg

Humidity: 85%

Dew point: 45 °F

Location of DaytonLocation

Historic Weather in Dayton — Graph

°F

Dayton temperature yesterday

Maximum temperature yesterday: 61 °F (at 1:58 PM)
Minimum temperature yesterday: 44 °F (at 12:58 AM)
Average temperature yesterday: 52 °F

Past Weeks' High & Low Weather Summary

 TemperatureHumidityPressure
High76 °F (Oct 13, 2:58 PM)100% (Oct 10, 1:58 AM)30.26 "Hg (Oct 10, 1:58 AM)
Low38 °F (Oct 19, 7:58 AM)32% (Oct 8, 4:58 PM)29.60 "Hg (Oct 14, 12:58 PM)
Average55 °F82%29.94 "Hg
* Reported Oct 6 6:58 AM — Oct 21 6:58 AM, Dayton, Weather by CustomWeather, © 2014

Note: Actual official high and low records may vary slightly from our data, if they occured in-between our weather recording intervals... More about our weather records

Advertising

Dayton weather history for previous 24 hours

 ConditionsComfort  
Time TempWeatherWind HumidityBarometerVisibility
6:58 AM
Oct 21
49 °FOvercast.9 mph85%29.96 "Hg10 mi
5:58 AM50 °FMostly cloudy.7 mph87%29.94 "Hg10 mi
4:58 AM50 °FPartly cloudy.8 mph89%29.93 "Hg10 mi
3:58 AM51 °FMostly cloudy.6 mph94%29.92 "Hg10 mi
2:58 AM52 °FPassing clouds.6 mph92%29.92 "Hg10 mi
1:58 AM53 °FPassing clouds.9 mph89%29.91 "Hg10 mi
12:58 AM53 °FPassing clouds.10 mph91%29.90 "Hg10 mi
11:58 PM
Oct 20
49 °FPassing clouds.No wind98%29.90 "Hg10 mi
10:58 PM50 °FPassing clouds.No wind99%29.90 "Hg10 mi
9:58 PM51 °FPassing clouds.3 mph96%29.89 "Hg10 mi
8:58 PM53 °FPassing clouds.3 mph88%29.88 "Hg10 mi
7:58 PM53 °FThunderstorms. Overcast.6 mph97%29.88 "Hg10 mi
6:58 PM54 °FScattered clouds.6 mph93%29.87 "Hg10 mi
5:58 PM58 °FPartly sunny.7 mph86%29.87 "Hg10 mi
4:58 PM57 °FBroken clouds.9 mph89%29.86 "Hg10 mi
3:58 PM55 °FLight rain. Mostly cloudy.7 mph93%29.86 "Hg10 mi
2:58 PM60 °FOvercast.10 mph63%29.86 "Hg10 mi
1:58 PM61 °FRefreshingly cool.15 mph60%29.87 "Hg10 mi
12:58 PM60 °FPassing clouds.17 mph61%29.90 "Hg10 mi
11:58 AM59 °FPassing clouds.16 mph65%29.93 "Hg10 mi
10:58 AM57 °FPartly sunny.14 mph66%29.95 "Hg10 mi
9:58 AM53 °FPartly sunny.13 mph73%29.98 "Hg10 mi
8:58 AM48 °FPartly sunny.7 mph82%30.00 "Hg10 mi
Weather by CustomWeather, © 2014

See weather overviewHow to use our weather pages